User: anonymous   Login
Location: Maiden_LMO
(35.5760°N, 81.2120°W)
Time: 12:41:20
(UTC-04:00)
Language:

Cosmos 2278 Rocket - Orbit

View from above orbital plane
View from above orbital plane
View from above satellite
View from above satellite

Ground track
Ground track

The orbit data is extracted from the following two-line orbital elements,

1 23088U 94023B   17142.88839282 -.00000283 +00000-0 -12260-3 0  9991
2 23088 070.9998 335.1543 0002490 184.5355 175.5745 14.14655269191968
Epoch (UTC): 22 May 2017 21:19:17
Eccentricity: 0.0002490
inclination: 70.9998°
perigee height: 841 km
apogee height: 845 km
right ascension of ascending node: 335.1543°
argument of perigee: 184.5355°
revolutions per day: 14.14655269
mean anomaly at epoch: 175.5745°
orbit number at epoch: 19196

The dashed part of the orbit path shows where the satellite is in the earth's shadow,  

DLR